DW6494 Weather Reports


time (UTC)temp
C
wind
direction
speed
KPH
gust
KPH
rain 1hr
cm
rain 24hr
cm
rain mn
cm
humidity
%
barometer
mb
20260505070530 12 147 12.9 14.5 0.00 0.00 0.00 66 1009.0
20260505070029 12 101 8.0 14.5 0.00 0.00 0.00 66 1009.0
20260505065531 12 81 8.0 11.3 0.00 0.00 0.00 65 1010.0
20260505065029 12 115 9.7 14.5 0.00 0.00 0.00 64 1010.0
20260505064531 12 146 12.9 17.7 0.00 0.00 0.00 64 1010.0
20260505064029 12 145 14.5 20.9 0.00 0.00 0.00 62 1010.0
20260505063531 13 132 20.9 27.4 0.00 0.00 0.00 61 1010.0
20260505063029 13 129 20.9 29.0 0.00 0.00 0.00 59 1010.0
20260505062530 13 143 17.7 27.4 0.00 0.00 0.00 59 1010.0
20260505062030 13 146 17.7 22.5 0.00 0.00 0.00 61 1010.0
20260505061530 13 145 12.9 19.3 0.00 0.00 0.00 61 1010.0
20260505061029 13 164 6.4 12.9 0.00 0.00 0.00 60 1010.0
20260505060530 13 137 4.8 9.7 0.00 0.00 0.00 60 1010.0
20260505060030 13 118 9.7 12.9 0.00 0.00 0.00 61 1010.0
20260505055529 13 133 14.5 20.9 0.00 0.00 0.00 61 1010.0
20260505055030 13 147 16.1 22.5 0.00 0.00 0.00 61 1010.0
20260505054529 13 135 9.7 14.5 0.00 0.00 0.00 61 1010.0
20260505054030 13 145 9.7 14.5 0.00 0.00 0.00 60 1010.0
20260505053530 13 137 17.7 25.7 0.00 0.00 0.00 60 1010.0
20260505053029 13 130 20.9 27.4 0.00 0.00 0.00 61 1010.0
20260505052529 13 139 12.9 17.7 0.00 0.00 0.00 60 1010.0
20260505052030 13 134 17.7 24.1 0.00 0.00 0.00 60 1010.0
20260505051529 13 135 20.9 27.4 0.00 0.00 0.00 58 1010.0
20260505051032 13 147 16.1 20.9 0.00 0.00 0.00 58 1010.0
20260505050531 13 149 12.9 20.9 0.00 0.00 0.00 60 1010.0
20260505041533 14 129 14.5 19.3 0.00 0.00 0.00 62 1009.0
20260505041029 14 124 4.8 9.7 0.00 0.00 0.00 62 1009.0
20260505040530 15 128 9.7 12.9 0.00 0.00 0.00 62 1009.0
20260505040029 15 133 14.5 20.9 0.00 0.00 0.00 61 1009.0
20260505035529 15 131 9.7 20.9 0.00 0.00 0.00 60 1008.0
20260505035030 15 113 9.7 16.1 0.00 0.00 0.00 60 1008.0
20260505034529 15 137 9.7 14.5 0.00 0.00 0.00 57 1008.0
20260505034029 15 126 8.0 14.5 0.00 0.00 0.00 56 1008.0
20260505033530 15 61 3.2 6.4 0.00 0.00 0.00 55 1008.0
20260505033029 15 88 6.4 9.7 0.00 0.00 0.00 56 1008.0
20260505032529 16 87 4.8 8.0 0.00 0.00 0.00 55 1008.0
20260505032029 16 1 4.8 11.3 0.00 0.00 0.00 54 1008.0
20260505031529 16 87 8.0 8.0 0.00 0.00 0.00 55 1008.0
20260505031030 16 97 3.2 6.4 0.00 0.00 0.00 51 1008.0
20260505030530 16 112 4.8 9.7 0.00 0.00 0.00 43 1008.0
20260505030030 17 113 0.0 3.2 0.00 0.00 0.00 42 1008.0
20260505025530 17 0 0.0 0.0 0.00 0.00 0.00 41 1007.0
20260505025029 17 0 0.0 0.0 0.00 0.00 0.00 40 1007.0
20260505024533 17 0 0.0 0.0 0.00 0.00 0.00 40 1007.0
20260505024030 17 301 1.6 6.4 0.00 0.00 0.00 40 1007.0
20260505023529 17 0 0.0 0.0 0.00 0.00 0.00 41 1007.0
20260505023030 17 0 0.0 0.0 0.00 0.00 0.00 40 1007.0
20260505022529 17 14 0.0 3.2 0.00 0.00 0.00 40 1007.0
20260505022029 17 2 0.0 0.0 0.00 0.00 0.00 40 1007.0
20260505021529 17 138 6.4 9.7 0.00 0.00 0.00 40 1007.0
20260505021030 17 195 4.8 12.9 0.00 0.00 0.00 39 1007.0
20260505020529 18 208 4.8 6.4 0.00 0.00 0.00 39 1007.0
20260505020033 18 345 3.2 8.0 0.00 0.00 0.00 39 1007.0
20260505015530 18 171 11.3 17.7 0.00 0.00 0.00 39 1007.0
20260505015029 18 164 11.3 14.5 0.00 0.00 0.00 39 1007.0
20260505014530 18 345 8.0 11.3 0.00 0.00 0.00 39 1007.0
20260505014030 18 338 4.8 9.7 0.00 0.00 0.00 39 1007.0
20260505013048 18 170 9.7 20.9 0.00 0.00 0.00 39 1007.0
20260505012529 18 144 11.3 17.7 0.00 0.00 0.00 39 1007.0
20260505012030 18 148 20.9 25.7 0.00 0.00 0.00 38 1007.0
20260505011530 18 168 8.0 16.1 0.00 0.00 0.00 39 1007.0
20260505011029 18 148 11.3 16.1 0.00 0.00 0.00 39 1007.0
20260505010530 18 158 16.1 27.4 0.00 0.00 0.00 39 1007.0
20260505010029 18 144 27.4 33.8 0.00 0.00 0.00 39 1007.0
20260505005529 19 138 14.5 22.5 0.00 0.00 0.00 36 1007.0
20260505005029 20 148 17.7 25.7 0.00 0.00 0.00 30 1007.0
20260505004529 20 142 3.2 11.3 0.00 0.00 0.00 30 1007.0
20260505004030 20 158 12.9 20.9 0.00 0.00 0.00 30 1007.0
20260505003535 20 157 4.8 12.9 0.00 0.00 0.00 31 1007.0
20260505003030 20 63 1.6 6.4 0.00 0.00 0.00 31 1007.0
20260505002530 20 344 3.2 9.7 0.00 0.00 0.00 31 1007.0
20260505002029 20 306 6.4 14.5 0.00 0.00 0.00 31 1007.0
20260505001529 20 215 4.8 12.9 0.00 0.00 0.00 30 1007.0
20260505001029 20 0 0.0 0.0 0.00 0.00 0.00 32 1007.0
20260505000530 20 303 0.0 6.4 0.00 0.00 0.00 31 1007.0
20260505000029 21 329 0.0 1.6 0.00 0.00 0.00 30 1007.0
20260504235529 21 341 3.2 8.0 0.00 0.00 0.00 29 1007.0
20260504235029 20 151 0.0 3.2 0.00 0.00 0.00 31 1007.0
20260504234529 20 216 1.6 8.0 0.00 0.00 0.00 31 1007.0
20260504234029 20 306 8.0 19.3 0.00 0.00 0.00 31 1007.0
20260504233530 20 354 1.6 6.4 0.00 0.00 0.00 31 1007.0
20260504233029 20 335 4.8 9.7 0.00 0.00 0.00 32 1007.0
20260504232529 20 30 9.7 16.1 0.00 0.00 0.00 33 1007.0
20260504232030 20 141 9.7 17.7 0.00 0.00 0.00 33 1007.0
20260504231529 20 65 11.3 19.3 0.00 0.00 0.00 34 1007.0
20260504231031 20 107 8.0 17.7 0.00 0.00 0.00 34 1007.0
20260504230529 20 85 17.7 25.7 0.00 0.00 0.00 34 1007.0
20260504230030 20 72 9.7 17.7 0.00 0.00 0.00 32 1007.0
20260504225531 20 89 12.9 17.7 0.00 0.00 0.00 33 1007.0
20260504225029 20 75 17.7 24.1 0.00 0.00 0.00 32 1007.0
20260504224530 20 89 8.0 19.3 0.00 0.00 0.00 32 1007.0
20260504224029 20 85 17.7 30.6 0.00 0.00 0.00 33 1007.0
20260504223530 20 79 14.5 25.7 0.00 0.00 0.00 32 1007.0
20260504223031 20 83 9.7 17.7 0.00 0.00 0.00 32 1007.0
20260504222533 20 78 24.1 37.0 0.00 0.00 0.00 32 1007.0
20260504222030 20 64 14.5 27.4 0.00 0.00 0.00 32 1007.0
20260504221529 20 80 17.7 32.2 0.00 0.00 0.00 32 1007.0
20260504221029 21 89 20.9 45.1 0.00 0.00 0.00 31 1007.0
20260504220529 21 137 6.4 11.3 0.00 0.00 0.00 32 1007.0
20260504220029 21 309 4.8 9.7 0.00 0.00 0.00 29 1007.0
20260504215530 20 8 6.4 11.3 0.00 0.00 0.00 31 1007.0
20260504215029 20 316 8.0 16.1 0.00 0.00 0.00 31 1007.0
20260504214530 20 241 1.6 9.7 0.00 0.00 0.00 31 1007.0
20260504214030 20 305 9.7 19.3 0.00 0.00 0.00 32 1007.0
20260504213529 21 300 11.3 19.3 0.00 0.00 0.00 31 1007.0
20260504213031 21 285 17.7 29.0 0.00 0.00 0.00 31 1007.0
20260504212530 21 269 12.9 25.7 0.00 0.00 0.00 30 1007.0
20260504212032 21 283 6.4 12.9 0.00 0.00 0.00 30 1007.0
20260504211530 21 45 1.6 9.7 0.00 0.00 0.00 30 1007.0
20260504211029 22 164 9.7 22.5 0.00 0.00 0.00 29 1007.0
20260504210530 22 158 12.9 24.1 0.00 0.00 0.00 29 1007.0
20260504210029 22 36 6.4 16.1 0.00 0.00 0.00 30 1007.0
20260504205530 22 165 9.7 27.4 0.00 0.00 0.00 29 1007.0
20260504205032 23 126 6.4 12.9 0.00 0.00 0.00 29 1007.0
20260504204530 23 146 9.7 19.3 0.00 0.00 0.00 27 1007.0
20260504204030 22 209 8.0 14.5 0.00 0.00 0.00 28 1007.0
20260504203529 22 152 8.0 17.7 0.00 0.00 0.00 29 1007.0
20260504203031 22 145 14.5 24.1 0.00 0.00 0.00 25 1007.0
20260504202530 21 145 17.7 29.0 0.00 0.00 0.00 28 1007.0
20260504202030 21 178 9.7 25.7 0.00 0.00 0.00 30 1008.0
20260504201530 21 345 3.2 6.4 0.00 0.00 0.00 28 1008.0
20260504201029 22 310 6.4 12.9 0.00 0.00 0.00 25 1008.0
20260504200529 22 232 3.2 4.8 0.00 0.00 0.00 27 1008.0
20260504200029 22 140 3.2 9.7 0.00 0.00 0.00 27 1008.0
20260504195529 21 111 6.4 14.5 0.00 0.00 0.00 30 1008.0
20260504195031 22 175 9.7 14.5 0.00 0.00 0.00 29 1008.0
20260504194529 21 228 4.8 6.4 0.00 0.00 0.00 30 1008.0
20260504194029 21 152 20.9 30.6 0.00 0.00 0.00 30 1008.0
20260504193530 21 79 1.6 6.4 0.00 0.00 0.00 29 1008.0
20260504193030 21 151 14.5 20.9 0.00 0.00 0.00 31 1008.0
20260504192530 21 182 11.3 19.3 0.00 0.00 0.00 30 1008.0
20260504192030 21 154 17.7 27.4 0.00 0.00 0.00 30 1008.0
20260504191529 21 160 12.9 19.3 0.00 0.00 0.00 30 1008.0
20260504191029 21 147 12.9 24.1 0.00 0.00 0.00 32 1008.0
20260504190530 21 169 11.3 17.7 0.00 0.00 0.00 31 1008.0
20260504190030 20 136 4.8 8.0 0.00 0.00 0.00 32 1008.0
20260504185530 21 151 20.9 25.7 0.00 0.00 0.00 30 1009.0
20260504185030 21 153 14.5 20.9 0.00 0.00 0.00 32 1009.0
20260504184529 21 163 12.9 19.3 0.00 0.00 0.00 32 1009.0
20260504184031 20 157 14.5 19.3 0.00 0.00 0.00 32 1009.0
20260504183530 20 156 14.5 25.7 0.00 0.00 0.00 32 1009.0
20260504183030 20 156 6.4 12.9 0.00 0.00 0.00 32 1009.0
20260504182531 20 141 19.3 30.6 0.00 0.00 0.00 32 1009.0
20260504182032 21 143 12.9 19.3 0.00 0.00 0.00 32 1009.0
20260504181530 20 131 12.9 22.5 0.00 0.00 0.00 33 1009.0
20260504181030 21 162 12.9 17.7 0.00 0.00 0.00 32 1009.0
20260504180529 20 339 4.8 6.4 0.00 0.00 0.00 33 1009.0
20260504180030 20 143 6.4 12.9 0.00 0.00 0.00 34 1009.0
20260504175529 20 147 9.7 14.5 0.00 0.00 0.00 32 1009.0
20260504175032 20 170 11.3 20.9 0.00 0.00 0.00 32 1009.0
20260504174529 20 152 1.6 9.7 0.00 0.00 0.00 33 1009.0
20260504174030 20 156 16.1 22.5 0.00 0.00 0.00 33 1009.0
20260504173532 20 152 6.4 11.3 0.00 0.00 0.00 35 1010.0
20260504173030 20 159 11.3 24.1 0.00 0.00 0.00 34 1010.0
20260504172529 20 117 8.0 24.1 0.00 0.00 0.00 35 1010.0
20260504172032 19 145 17.7 27.4 0.00 0.00 0.00 34 1010.0
20260504171530 19 147 9.7 14.5 0.00 0.00 0.00 34 1010.0
20260504171029 19 149 14.5 17.7 0.00 0.00 0.00 33 1010.0
20260504170529 19 223 4.8 9.7 0.00 0.00 0.00 35 1010.0
20260504151030 17 20 6.4 8.0 0.00 0.00 0.00 44 1010.0
20260504150530 16 1 0.0 1.6 0.00 0.00 0.00 46 1010.0
20260504141029 15 72 8.0 9.7 0.00 0.00 0.00 49 1010.0
20260504140531 14 78 6.4 11.3 0.00 0.00 0.00 49 1010.0
20260504130532 12 85 0.0 1.6 0.00 0.00 0.00 60 1010.0
20260504110529 14 110 6.4 14.5 0.00 0.00 0.00 51 1010.0
20260504100529 14 28 6.4 6.4 0.00 0.00 0.00 41 1010.0
20260504081530 13 28 9.7 11.3 0.00 0.00 0.00 40 1010.0
20260504081029 13 37 8.0 11.3 0.00 0.00 0.00 42 1010.0
20260504080530 13 49 6.4 6.4 0.00 0.00 0.00 45 1010.0